User: anonymous   Login
Location: Gollag?dem
(16.8053°N, 80.8024°E)
Time: 07:23:26
(UTC+00:00)
Language:

Meteor 2-6 Rocket - Orbit

View from above orbital plane
View from above orbital plane
View from above satellite
View from above satellite

Ground track
Ground track

The orbit data is extracted from the following two-line orbital elements,

1 11963U 80073B   20296.19464059  .00000073  00000-0  33500-4 0  9990
2 11963  81.2804  18.9170 0074009 214.7361 144.8966 14.09722271 62837
Epoch (UTC): 22 October 2020 04:40:16
Eccentricity: 0.0074009
inclination: 81.2804°
perigee height: 807 km
apogee height: 914 km
right ascension of ascending node: 18.9170°
argument of perigee: 214.7361°
revolutions per day: 14.09722271
mean anomaly at epoch: 144.8966°
orbit number at epoch: 6283

The dashed part of the orbit path shows where the satellite is in the earth's shadow,  

DLR